FENGYUN 1C DEB, 30978

Orbit data source: Space-Track

FENGYUN 1C DEB, 30978 is space debris in SSO originally from a launch on Mon, 10 May 1999 UTC launched from the Taiyaun Space Center, China (TSC). Fengyun 1C debris stems from the Chinese weather satellite Fengyun-1C, which was intentionally destroyed by a Chinese anti-satellite missile in 2007. This event dramatically increased the amount of space debris, with thousands of trackable fragments posing hazards to satellites and human spaceflight. The Fengyun 1C debris cloud has become a focal point in discussions about space sustainability and the need for international regulations to prevent the creation of new debris.

Loading next visibility...
Identifier
30978, 1999-025BBU
Orbit
SSO
Country
Flag of CNCN / PRC
Related business
Manufacturer
Unknown
Mission
Spacecraft
Bus & Motor
Unknown
Mass
Unknown
Launch date (UTC)
1999-05-10 (27 years ago)
Launch vehicle
Unknown
Launch site
Taiyaun Space Center, China (TSC)
Object type
Payload
Rocket body
Debris
Shape & HBR
Unknown shape, 0.1 m
Radar Cross Section
Small (<0.1 m²)

Expand to show TLE details & history
Last TLE update: 1 day ago

TLE from 1 day ago
0 FENGYUN 1C DEB
1 30978U 99025BBU 26143.85909154  .00002386  00000-0  78267-3 0  9991
2 30978  98.2319 184.6117 0041613  92.9679 267.6272 14.38724603  7700
Epoch: 2026-05-23T20:37Z
TLE epoch observation values (Epoch: 2026-05-23T20:37:05.509Z)
Latitude
-0.00005°
Longitude
-6.13079°
Altitude
767.025 km
Speed
7.47 km/s
True Right ascension
12h 18m 26s
True Declination
0° 00' 00"
Sunlit
Object was in full shadow at epoch
Visualization orbit readout
Latitude
Unknown
Longitude
Unknown
Altitude
Unknown
Speed
Unknown
Apparent Right ascension
Unknown
Apparent Declination
Unknown
Sunlit
N/A
Visualization observer readout
Local Sidereal Time
11:51:16
Azimuth
Unknown
Elevation
Unknown
Doppler factor
Unknown
Orbital elements
Apogee altitude
789.53 km
Perigee altitude
730.123 km
Semi-major axis
7,137.964 km
Eccentricity
0.00416
Inclination
98.2319°
RAAN
184.6117°
Arg. of periapsis
92.9679°
True anomaly
267.15087°
Mean anomaly
267.6272°
Eccentric anomaly
267.38902°
Mean motion
3.599 °/min
Orbital period
100.03 mins
BSTAR
0.00078267
Loading maneuver chart data...
Computing Atmospheric mass density...

Documentation

Showing up to 5 results
|